Home   Weather   Saratov   Past weeks

Flag for Russia Past Weather in Saratov, Russia — Yesterday and Last 2 Weeks

27 °F


Feels Like: 23 °F
Forecast: 28 / 38 °F
Wind: 3 mph from North

Location: Saratov / Tsentralny

Current Time: Oct 25, 2016 at 2:48:36 AM

Latest Report: Oct 25, 2016 at 2:00 AM

Visibility: 10 mi

Pressure: 30.98 "Hg

Humidity: 93%

Dew Point: 25 °F

Location of SaratovLocation

Past Weather in Saratov — Graph


Saratov Temperature Yesterday

Maximum temperature yesterday: 39 °F (at 12:00 PM)
Minimum temperature yesterday: 28 °F (at 7:00 AM)
Average temperature yesterday: 34 °F

High & Low Weather Summary for the Past Weeks

High50 °F (Oct 10, 4:00 PM)100% (Oct 16, 4:00 AM)31.01 "Hg (Oct 16, 4:00 AM)
Low28 °F (Oct 14, 6:00 AM)42% (Oct 17, 1:00 PM)29.98 "Hg (Oct 17, 8:30 AM)
Average38 °F72%30.45 "Hg
* Reported Oct 10 1:00 AM — Oct 25 1:00 AM, Saratov, Weather by CustomWeather, © 2016

Note: Actual official high and low records may vary slightly from our data, if they occured in-between our weather recording intervals... More about our weather records


Saratov Weather History for the Previous 24 Hours

Scroll right to see more
Time TempWeatherWind HumidityBarometerVisibility
1:00 AM
Tue, Oct 25
28 °FClear.1 mph86%30.98 "Hg10 mi
12:00 AM28 °FClear.1 mph93%30.98 "Hg10 mi
11:00 PM
Mon, Oct 24
32 °FPassing clouds.1 mph80%30.98 "HgN/A
10:30 PM32 °FPassing clouds.1 mph80%30.98 "HgN/A
10:00 PM32 °FPassing clouds.1 mph80%30.98 "HgN/A
9:30 PM32 °FPassing clouds.1 mph69%30.98 "HgN/A
9:00 PM32 °FPassing clouds.1 mph69%30.98 "HgN/A
8:30 PM34 °FPassing clouds.3 mph56%30.98 "HgN/A
8:00 PM34 °FPassing clouds.3 mph56%30.98 "HgN/A
7:30 PM34 °FPassing clouds.3 mph51%30.98 "HgN/A
7:00 PM34 °FPassing clouds.3 mph51%30.98 "HgN/A
6:30 PM36 °FPassing clouds.6 mph48%30.98 "HgN/A
6:00 PM36 °FPassing clouds.6 mph48%30.98 "HgN/A
5:30 PM36 °FPassing clouds.6 mph48%30.98 "HgN/A
5:00 PM36 °FPassing clouds.6 mph48%30.98 "HgN/A
4:30 PM36 °FPartly sunny.6 mph48%30.98 "HgN/A
4:00 PM36 °FPartly sunny.8 mph48%30.98 "HgN/A
3:30 PM37 °FPartly sunny.8 mph48%30.98 "HgN/A
3:00 PM37 °FPartly sunny.8 mph48%30.98 "HgN/A
2:30 PM37 °FPartly sunny.8 mph48%30.98 "HgN/A
2:00 PM37 °FPartly sunny.6 mph48%30.98 "HgN/A
1:30 PM37 °FPartly sunny.10 mph48%30.98 "HgN/A
1:00 PM37 °FPartly sunny.10 mph48%30.98 "HgN/A
12:30 PM39 °FPartly sunny.6 mph52%31.01 "HgN/A
12:00 PM39 °FPartly sunny.10 mph52%31.01 "HgN/A
11:30 AM36 °FScattered clouds.8 mph65%31.01 "HgN/A
11:00 AM36 °FScattered clouds.10 mph65%31.01 "HgN/A
10:30 AM34 °FScattered clouds.10 mph75%30.98 "HgN/A
10:00 AM34 °FScattered clouds.8 mph75%30.98 "HgN/A
9:30 AM32 °FPartly sunny.8 mph80%30.98 "HgN/A
9:00 AM32 °FPartly sunny.8 mph80%30.98 "HgN/A
8:30 AM28 °FPartly sunny.10 mph93%30.95 "HgN/A
8:00 AM28 °FPartly sunny.13 mph93%30.95 "HgN/A
7:30 AM28 °FPartly sunny.10 mph93%30.92 "HgN/A
7:00 AM28 °FPartly sunny.10 mph93%30.92 "HgN/A
6:30 AM30 °FPassing clouds.8 mph93%30.92 "HgN/A
6:00 AM30 °FPassing clouds.10 mph93%30.92 "HgN/A
5:30 AM30 °FPassing clouds.8 mph93%30.92 "HgN/A
5:00 AM30 °FPassing clouds.10 mph93%30.92 "HgN/A
4:30 AM32 °FPassing clouds.10 mph93%30.89 "HgN/A
4:00 AM32 °FMostly cloudy.10 mph93%30.89 "HgN/A
3:00 AM32 °FMostly cloudy.13 mph93%30.89 "HgN/A
2:30 AM32 °FMostly cloudy.13 mph93%30.89 "HgN/A
2:00 AM32 °FMostly cloudy.13 mph93%30.89 "HgN/A
Weather by CustomWeather, © 2016

See weather overviewHow to use our weather pages